Powrót do katalogu

MSAT M1

AktywnyŁącznośćGEO
NORAD 23846·PAYLOAD·🇨🇦 Canada

Wystrzelony Apr 20, 1996 z Guiana Space Centre

Loading…

TLE

ŚwieżeSource: Space-Track

Epoka: Sep 14, 2026, 13:52 UTC

1 23846U 96022A   26257.57839436 -.00000134  00000-0  00000-0 0  9998
2 23846  12.5747  27.6897 0023995 199.1294 352.0261  0.98647116110961

Śledź MSAT M1 w czasie rzeczywistym z AllMySat

Download on the App Store